Location: Altleiningen
(49.5078°N, 8.0741°E)
Time: 09:43:23
(UTC+00:00)

N. Korean satellite - Pass Details

Date: 12 August 2021
Orbit: 448 x 499 km, 97.3° (Epoch: 17 September)

Event Time Altitude Azimuth Distance (km) Brightness Sun altitude
Rises 03:34:10 0° 34° (NE) 2,516 11.6 -6.6°
Reaches altitude 10° 03:38:22 10° 84° (E) 1,613 10.4 -6.0°
Maximum altitude 03:38:34 10° 87° (E) 1,609 10.3 -6.0°
Drops below altitude 10° 03:38:47 10° 91° (E) 1,610 10.2 -6.0°
Sets 03:42:54 0° 141° (SE) 2,461 10.3 -5.4°
